Weather History for Broken Bow, NE

Change the Weather History Date:

Tuesday, December 25, 2012

  Actual Average Record
Temperature  
Mean Temperature 9 °F 25 °F  
Max Temperature 12 °F 37 °F 80 °F (1897)
Min Temperature 5 °F 13 °F -24 °F (1983)
Degree Days  
Heating Degree Days 56 40  
Month to date heating degree days 883 981  
Cooling Degree Days 0 0  
Month to date cooling degree days 0 0  
Year to date cooling degree days 1077 768  
Moisture  
Dew Point 1 °F    
Average Humidity 79    
Maximum Humidity 87    
Minimum Humidity 67    
Precipitation  
Precipitation T in 0.01 in 0.39 in (1948)
Sea Level Pressure  
Sea Level Pressure 30.47 in    
Wind  
Wind Speed 13 mph (North)    
Max Wind Speed 22 mph    
Max Gust Speed 26 mph    
Visibility 10 miles    
Events      
T = Trace of Precipitation, MM = Missing Value Source: NWS Daily Summary

Daily Weather History Graph

Daily Weather History Graph

Search for Another Location

Airport:

Trip Planner

Search our weather history database for the weather conditions in past years. The results will help you decide how hot, cold, wet, or windy it might be!

Date:

Astronomy

Dec. 25, 2012 Rise Set
Actual Time 8:03 AM CST 5:14 PM CST
Civil Twilight 7:31 AM CST 5:46 PM CST
Nautical Twilight 6:57 AM CST 6:20 PM CST
Astronomical Twilight 6:23 AM CST 6:54 PM CST
Moon 3:24 PM CST (12/25) 5:36 AM CST (12/25)
Length of Visible Light 10h 14m
Length of Day
9h 11m
Waxing Gibbous, 94% of the Moon is Illuminated
Dec 25
Waxing Gibbous
Dec 28
Full
Jan 4
Last Quarter
Jan 11
New
Jan 18
First Quarter

Hourly Weather History & Observations

Time (CST) Temp. Windchill Dew Point Humidity Pressure Visibility Wind Dir Wind Speed Gust Speed Precip Events Conditions
12:53 AM 9.0 °F -7.3 °F 3.9 °F 80% 30.34 in 8.0 mi North 13.8 mph - 0.00 in   Overcast
1:53 AM 7.0 °F -8.3 °F 1.9 °F 80% 30.35 in 10.0 mi NNE 11.5 mph - N/A   Overcast
2:53 AM 7.0 °F -13.1 °F 1.0 °F 77% 30.38 in 10.0 mi North 20.7 mph - N/A   Overcast
3:53 AM 7.0 °F -9.1 °F 1.0 °F 77% 30.40 in 10.0 mi North 12.7 mph 20.7 mph N/A   Overcast
4:53 AM 6.1 °F -11.6 °F 1.0 °F 80% 30.43 in 10.0 mi North 15.0 mph - N/A   Overcast
5:53 AM 6.1 °F -11.6 °F 1.0 °F 80% 30.45 in 10.0 mi North 15.0 mph - N/A   Overcast
6:53 AM 5.0 °F -12.3 °F -0.0 °F 80% 30.48 in 7.0 mi North 13.8 mph - 0.00 in   Overcast
7:53 AM 5.0 °F -11.6 °F 1.0 °F 84% 30.50 in 10.0 mi North 12.7 mph - 0.00 in   Overcast
8:53 AM 5.0 °F -11.6 °F -0.0 °F 80% 30.52 in 10.0 mi North 12.7 mph - N/A   Overcast
9:53 AM 6.1 °F -10.2 °F -0.0 °F 76% 30.55 in 10.0 mi North 12.7 mph - N/A   Mostly Cloudy
10:53 AM 7.0 °F -9.1 °F 1.0 °F 77% 30.57 in 10.0 mi North 12.7 mph - N/A   Overcast
11:53 AM 8.1 °F -7.7 °F 1.9 °F 76% 30.54 in 10.0 mi North 12.7 mph - N/A   Overcast
12:53 PM 10.0 °F -7.1 °F 3.0 °F 73% 30.50 in 10.0 mi North 16.1 mph - N/A   Overcast
1:53 PM 10.9 °F -6.5 °F 3.9 °F 73% 30.49 in 10.0 mi North 17.3 mph - N/A   Clear
2:53 PM 12.0 °F -0.4 °F 3.9 °F 70% 30.51 in 10.0 mi North 9.2 mph - N/A   Clear
3:53 PM 10.9 °F -0.8 °F 3.9 °F 73% 30.51 in 10.0 mi North 8.1 mph - N/A   Partly Cloudy
4:53 PM 10.9 °F 0.2 °F 3.0 °F 70% 30.50 in 10.0 mi North 6.9 mph - N/A   Overcast
5:53 PM 10.0 °F 3.6 °F 3.9 °F 76% 30.51 in 10.0 mi North 3.5 mph - N/A   Mostly Cloudy
6:53 PM 3.9 °F - -0.0 °F 84% 30.50 in 10.0 mi Calm Calm - N/A   Clear
7:53 PM 1.9 °F -5.6 °F -0.9 °F 88% 30.49 in 10.0 mi NNW 3.5 mph - N/A   Clear
8:53 PM 1.9 °F -5.6 °F -0.9 °F 88% 30.48 in 10.0 mi NNW 3.5 mph - N/A   Clear
9:53 PM -0.0 °F - -2.9 °F 88% 30.45 in 10.0 mi Calm Calm - N/A   Clear
10:53 PM -0.9 °F - -5.1 °F 83% 30.44 in 10.0 mi Calm Calm - N/A   Clear
11:53 PM -2.9 °F -11.2 °F -7.1 °F 82% 30.45 in 10.0 mi SSW 3.5 mph - N/A   Mostly Cloudy